カタログに戻る

COSMOS 1579 COOLANT

LostUNKNOWN
NORAD 27572·DEBRIS·🇷🇺 Russia

打ち上げ Jun 29, 1984 から Baikonur Cosmodrome

Loading…

次のパス (今後24時間)

TLE

古いSource: Space-Track

元期: Jan 23, 2018, 05:42 UTC

1 27572U 84069W   18023.23757616 -.00000024  00000-0  10000-3 0  9992
2 27572 101.2757  36.6114 0693755 353.1882   6.0487 11.29583020812775

AllMySatでCOSMOS 1579 COOLANTをリアルタイム追跡

Download on the App Store